Llagostera





Hora UTC 12:55
Temperatura 23.6 ºC
Humitat 52.0 %
Pressió 1018.2 hPa
Pluja 0.0 mm
Velocitat vent 16.1 km/h
Direcció vent

Dades diàries 2021-09-19



Hora UTC (hivern +1h; estiu +2h)
Temperatura (ºC) Humitat (%) Pressió (hPa) Velocitat vent (km/h) Precipitació (mm)
Hora UTC Aire Humitat Pressió Vel. Dir. Vel. Max Dir. Intent. màx 5 min.
00:05 15.8 83.0 1016.1 3.2 3.2 0.0
00:15 15.8 82.0 1015.9 4.8 16.1 0.0
00:25 15.9 82.0 1016.0 3.2 16.1 0.0
00:35 15.9 79.0 1016.0 3.2 16.1 0.0
00:45 16.1 80.0 1016.0 4.8 16.1 0.0
00:55 16.0 80.0 1016.0 6.4 16.1 0.0
01:05 16.2 80.0 1016.1 9.7 16.1 0.0
01:15 16.3 81.0 1016.3 9.7 16.1 0.0
01:25 16.2 81.0 1016.1 4.8 16.1 0.0
01:35 16.1 81.0 1016.0 4.8 16.1 0.0
01:45 15.9 81.0 1015.9 1.6 16.1 0.0
01:55 15.8 81.0 1015.9 3.2 16.1 0.0
02:05 15.7 83.0 1015.9 1.6 16.1 0.0
02:15 15.6 83.0 1015.9 1.6 16.1 0.0
02:25 15.4 83.0 1015.9 1.6 16.1 0.0
02:35 15.3 84.0 1016.0 0.0 16.1 0.0
02:45 15.3 85.0 1016.1 1.6 16.1 0.0
02:55 15.3 86.0 1016.1 1.6 16.1 0.0
03:05 15.3 88.0 1016.0 3.2 16.1 0.0
03:15 15.2 87.0 1016.1 0.0 16.1 0.0
03:25 15.1 88.0 1016.1 0.0 16.1 0.0
03:35 15.0 89.0 1016.2 0.0 16.1 0.0
03:45 14.9 89.0 1016.3 0.0 16.1 0.0
03:55 14.8 91.0 1016.2 0.0 16.1 0.0
04:05 14.8 92.0 1016.5 0.0 16.1 0.0
04:15 14.7 92.0 1016.3 0.0 16.1 0.0
04:25 14.6 92.0 1016.3 0.0 16.1 0.0
04:35 14.1 91.0 1016.3 0.0 16.1 0.0
04:45 13.7 91.0 1016.3 0.0 16.1 0.0
04:55 13.6 92.0 1016.5 0.0 16.1 0.0
05:05 13.1 92.0 1016.7 0.0 16.1 0.0
05:15 13.4 95.0 1017.0 0.0 16.1 0.0
05:25 13.8 96.0 1017.1 3.2 16.1 0.0
05:35 13.8 96.0 1017.1 1.6 16.1 0.0
05:45 13.4 96.0 1017.2 1.6 16.1 0.0
05:55 13.2 95.0 1017.5 1.6 16.1 0.0
06:05 13.1 96.0 1017.8 3.2 16.1 0.0
06:15 13.2 96.0 1017.9 1.6 16.1 0.0
06:25 13.3 96.0 1018.1 1.6 16.1 0.0
06:35 13.4 97.0 1018.1 3.2 16.1 0.0
06:45 14.1 98.0 1018.0 0.0 16.1 0.0
06:55 15.0 98.0 1018.1 0.0 16.1 0.0
07:05 15.6 97.0 1018.1 1.6 16.1 0.0
07:15 16.1 97.0 1018.1 3.2 16.1 0.0
07:25 16.4 95.0 1018.2 0.0 16.1 0.0
07:35 16.7 95.0 1018.3 4.8 16.1 0.0
07:45 16.8 94.0 1018.4 6.4 16.1 0.0
07:55 16.9 94.0 1018.5 6.4 16.1 0.0
08:05 17.3 93.0 1018.5 3.2 16.1 0.0
08:15 17.6 92.0 1018.6 3.2 16.1 0.0
08:25 18.1 91.0 1018.6 3.2 16.1 0.0
08:35 18.6 88.0 1018.8 4.8 16.1 0.0
08:45 19.2 87.0 1018.8 4.8 16.1 0.0
08:55 19.7 84.0 1018.9 4.8 16.1 0.0
09:05 20.1 80.0 1018.8 8.0 16.1 0.0
09:15 20.3 80.0 1018.9 6.4 16.1 0.0
09:25 20.5 78.0 1019.0 4.8 16.1 0.0
09:35 21.2 76.0 1019.0 3.2 16.1 0.0
09:45 21.8 75.0 1018.9 4.8 16.1 0.0
09:55 21.9 72.0 1018.9 3.2 16.1 0.0
10:05 22.7 70.0 1018.9 3.2 16.1 0.0
10:15 23.1 64.0 1018.8 4.8 16.1 0.0
10:25 23.2 63.0 1018.8 9.7 25.7 0.0
10:35 23.3 58.0 1018.7 12.9 32.2 0.0
10:45 23.1 57.0 1018.7 9.7 32.2 0.0
10:55 23.2 58.0 1018.8 12.9 32.2 0.0
11:05 23.6 57.0 1018.5 9.7 32.2 0.0
11:15 24.1 57.0 1018.7 9.7 32.2 0.0
11:25 24.0 57.0 1018.7 12.9 32.2 0.0
11:35 23.8 59.0 1018.6 16.1 32.2 0.0
11:45 23.3 59.0 1018.6 16.1 33.8 0.0
11:55 23.3 58.0 1018.6 19.3 35.4 0.0
12:05 23.4 52.0 1018.7 17.7 38.6 0.0
12:15 23.7 52.0 1018.6 11.3 38.6 0.0
12:25 23.9 49.0 1018.6 11.3 38.6 0.0
12:35 24.1 55.0 1018.5 11.3 38.6 0.0
12:45 23.7 52.0 1018.3 16.1 38.6 0.0
12:55 23.6 52.0 1018.2 16.1 38.6 0.0
Màxima 24.2 98.0 1019.0 19.3 38.6 0.0
Mínima 13.1 49.0 1015.9
Total 0.0